Weather in Krasnaya Sopka

Russia / Krasnoyarsk Krai     55°42′04″N   90°02′10″E
temp.,
°C
wind,
m/s
gust,
m/s
humid.,
%
clouds,
%
prec.,
mm/h
press.,
hPa
HPBL,
m
18 april, sun
sun1801:00−9sse238788 0.0 102437
04:00−6sse3783100 0.0 1021141
07:00−4s4979100 0.0 1019323
10:00−1sw5975100 0.0 1017980
13:00+1wsw61070100 0.0 10151276
16:00+3wsw61069100 0.0 1014865
19:00+2sw4875100 0.0 1013203
22:00+1s51076100 0.0 1010265
19 april, mon
mon1901:000sse71494100 1.3 1005618
04:00+1ssw51398100 3.4 998594
07:00+2wsw71599100 7.0 996814
10:00−1wsw131778100 0.4 9991529
13:00−6wnw111582100 0.7 10111293
16:00−6wnw10146991 0.1 10171506
19:00−7wnw71375100 0.2 10191509
22:00−8wnw61178100 0.1 10211277
20 april, tue
tue2001:00−8w7127758 0.1 10211194
04:00−9wnw7118383 0.1 10221098
07:00−9w7108297 0.2 1023894
10:00−7w7872100 0.0 10241087
13:00−5wnw6870100 0.1 10241254
16:00−4wnw6767100 0.1 10241252
19:00−4wnw367291 0.1 1024732
22:00−6wsw228435 0.0 102526
21 april, wed
wed2101:00−6ssw129095 0.0 102576
04:00−7ssw229069 0.1 102551
07:00−6s2280100 0.1 102691
10:00−3s2355100 0.0 1026795
13:00−2e1246100 0.0 10251399
16:00−1ene4350100 0.0 10251205
19:00−2ene4664100 0.0 1026413
22:00−3ne3774100 0.0 1028235
22 april, thu
thu2201:00−4nne3681100 0.0 1029191
04:00−5nne368478 0.0 1030171
07:00−5nne378194 0.0 1032215
10:00−2ne576984 0.0 1034681
13:000nne5658100 0.1 10351379
16:00+1nne455395 0.1 10361371
19:000nne34625 0.1 1038391
22:00−3n22735 0.0 104028